Flag Weather past 2 weeks in Hommelvik, Norway

Now
32 °F

Passing clouds.


Feels Like: 29 °F
Forecast: 29 / 33 °F
Wind: 3 mph from East

Location: Trondheim / Vaernes

Current Time: Nov 27, 2014 at 9:45:24 AM

Latest Report: Nov 27, 2014 at 9:00 AM


Visibility: 31 mi

Pressure: 30.09 "Hg

Humidity: 84%

Dew point: 28 °F

Location of HommelvikLocation

Historic Weather in Hommelvik — Graph

°F

Hommelvik temperature yesterday

Maximum temperature yesterday: 40 °F (at 12:00 AM)
Minimum temperature yesterday: 29 °F (at 11:00 PM)
Average temperature yesterday: 33 °F

Past Weeks' High & Low Weather Summary

 TemperatureHumidityPressure
High49 °F (Nov 14, 2:00 PM)99% (Nov 26, 9:00 AM)30.50 "Hg (Nov 26, 9:00 AM)
Low20 °F (Nov 22, 8:00 AM)53% (Nov 16, 3:00 AM)29.69 "Hg (Nov 24, 5:00 AM)
Average37 °F75%30.19 "Hg
* Reported Nov 12 8:00 AM — Nov 27 8:00 AM, Hommelvik, Weather by CustomWeather, © 2014

Note: Actual official high and low records may vary slightly from our data, if they occured in-between our weather recording intervals... More about our weather records

Advertising

Hommelvik weather history for previous 24 hours

 ConditionsComfort  
Time TempWeatherWind HumidityBarometerVisibility
8:00 AM
Nov 27
33 °FPassing clouds.3 mph81%30.09 "Hg31 mi
7:00 AM34 °FPassing clouds.2 mph77%30.08 "Hg31 mi
6:00 AM32 °FPassing clouds.2 mph82%30.06 "Hg31 mi
5:00 AM34 °FPassing clouds.5 mph78%30.07 "Hg31 mi
3:00 AM33 °FClear.3 mph76%30.09 "Hg31 mi
2:00 AM33 °FPassing clouds.5 mph78%30.10 "Hg31 mi
1:00 AM32 °FClear.3 mph82%30.12 "Hg31 mi
12:00 AM30 °FClear.3 mph85%30.14 "Hg31 mi
11:00 PM
Nov 26
29 °FClear.3 mph86%30.16 "Hg31 mi
10:00 PM32 °FClear.1 mph80%30.16 "Hg31 mi
9:00 PM30 °FClear.2 mph83%30.16 "Hg28 mi
8:00 PM31 °FClear.3 mph85%30.17 "Hg31 mi
7:00 PM32 °FClear.2 mph80%30.18 "Hg31 mi
6:00 PM32 °FClear.3 mph81%30.18 "Hg31 mi
5:00 PM34 °FClear.5 mph78%30.19 "Hg31 mi
4:00 PM34 °FClear.3 mph78%30.19 "Hg31 mi
3:00 PM33 °FClear.3 mph86%30.22 "Hg31 mi
2:00 PM34 °FSunny.5 mph88%30.24 "Hg28 mi
1:00 PM34 °FSunny.6 mph88%30.26 "Hg22 mi
12:00 PM34 °FSunny.3 mph91%30.27 "Hg22 mi
11:00 AM32 °FSunny.2 mph96%30.27 "Hg19 mi
10:00 AM31 °FSunny.3 mph97%30.28 "Hg22 mi
9:00 AM32 °FClear.3 mph99%30.29 "Hg12 mi
Weather by CustomWeather, © 2014

See weather overviewHow to use our weather pages